This is the latest recevied weather packets stored in our database for station/object DL3NDS-WX. If no packets are shown the sender has not sent any weather packets the latest 1 day(s).
| Time | Temp. | Humidity | Pressure | Rain* | Wind** | Luminosity | Snow |
|---|---|---|---|---|---|---|---|
| 1778003610 | 12.22° C | 85% | 1008.2 hPa | 6.1 mm | 3.58 m/s, 259° | 0 W/m² | - |
| 1778003553 | 12.22° C | 85% | 1008.2 hPa | 5.84 mm | 4.02 m/s, 291° | 0 W/m² | - |
| 1778003495 | 12.78° C | 84% | 1008.2 hPa | 5.33 mm | 4.47 m/s, 295° | 0 W/m² | - |
| 1778003430 | 12.78° C | 84% | 1008.2 hPa | 5.08 mm | 4.02 m/s, 279° | 0 W/m² | - |
| 1778003392 | 12.78° C | 83% | 1008.2 hPa | 4.83 mm | 4.47 m/s, 283° | 0 W/m² | - |
| 1778003358 | 12.78° C | 83% | 1008.2 hPa | 4.32 mm | 5.36 m/s, 290° | 0 W/m² | - |
| 1778003245 | 12.78° C | 83% | 1008.2 hPa | 4.32 mm | 5.36 m/s, 297° | 0 W/m² | - |
| 1778003185 | 13.33° C | 83% | 1008.2 hPa | 4.06 mm | 4.47 m/s, 277° | 0 W/m² | - |
| 1778003124 | 13.33° C | 82% | 1008.1 hPa | 3.81 mm | 4.47 m/s, 280° | 0 W/m² | - |
| 1778003062 | 13.33° C | 81% | 1008.2 hPa | 3.3 mm | 4.47 m/s, 285° | 0 W/m² | - |
| 1778003000 | 13.89° C | 81% | 1008.3 hPa | 2.54 mm | 4.47 m/s, 229° | 0 W/m² | - |
| 1778002938 | 13.89° C | 81% | 1008.2 hPa | 2.03 mm | 4.47 m/s, 273° | 0 W/m² | - |
| 1778002873 | 14.44° C | 80% | 1008.4 hPa | 2.03 mm | 3.58 m/s, 259° | 0 W/m² | - |
| 1778002812 | 14.44° C | 79% | 1008.4 hPa | 1.52 mm | 3.13 m/s, 269° | 0 W/m² | - |
| 1778002751 | 14.44° C | 78% | 1008.5 hPa | 0.76 mm | 3.13 m/s, 256° | 0 W/m² | - |
| 1778002689 | 15° C | 77% | 1008.4 hPa | 0.51 mm | 4.02 m/s, 246° | 0 W/m² | - |
| 1778002628 | 15° C | 77% | 1008.4 hPa | 0.51 mm | 4.47 m/s, 238° | 0 W/m² | - |
| 1778002571 | 15.56° C | 76% | 1008.4 hPa | 0 mm | 5.36 m/s, 250° | 0 W/m² | - |
| 1778002509 | 15.56° C | 74% | 1008.4 hPa | 0 mm | 4.02 m/s, 249° | 0 W/m² | - |
| 1778002449 | 16.11° C | 72% | 1008.5 hPa | 0 mm | 3.13 m/s, 222° | 0 W/m² | - |
| 1778002388 | 16.11° C | 71% | 1008.3 hPa | 0 mm | 3.13 m/s, 178° | 0 W/m² | - |
| 1778002347 | 16.11° C | 70% | 1008.4 hPa | 0 mm | 3.13 m/s, 216° | 0 W/m² | - |
| 1778002309 | 16.67° C | 68% | 1008.2 hPa | 0 mm | 4.02 m/s, 280° | 0 W/m² | - |
| 1778002210 | 16.67° C | 66% | 1008.2 hPa | 0 mm | 4.92 m/s, 223° | 0 W/m² | - |
| 1778002175 | 16.67° C | 65% | 1008.3 hPa | 0 mm | 6.26 m/s, 216° | 0 W/m² | - |
* Rain latest hour (hover to see other rain measurements)
** Current wind speed in m/s (hover to see current wind gust speed)